Time,TemperatureF,DewpointF,PressureIn,WindDirection,WindDirectionDegrees,WindSpeedMPH,WindSpeedGustMPH,Humidity,HourlyPrecipIn,Conditions,Clouds,dailyrainin,SoftwareType,DateUTC
2013-01-09 03:36:00,46.0,45.8,29.67,SSE,157,0.0,0.0,99,0.00,,,0.00,WUHU21623XXSP,2013-01-09 11:36:00,
2013-01-09 03:41:00,46.0,45.8,29.67,South,180,0.0,0.0,99,0.00,,,0.00,WUHU21623XXSP,2013-01-09 11:41:00,
2013-01-09 03:46:00,45.7,45.4,29.66,South,180,0.0,0.0,99,0.00,,,0.00,WUHU21623XXSP,2013-01-09 11:46:00,
2013-01-09 03:51:00,45.7,45.4,29.66,SE,135,0.0,0.0,99,0.00,,,0.00,WUHU21623XXSP,2013-01-09 11:51:00,
2013-01-09 03:56:00,45.5,45.2,29.66,East,90,0.0,0.0,99,0.00,,,0.00,WUHU21623XXSP,2013-01-09 11:56:00,
2013-01-09 04:01:00,45.3,45.0,29.66,SE,135,0.0,0.0,99,0.00,,,0.00,WUHU21623XXSP,2013-01-09 12:01:00,
2013-01-09 04:06:00,45.3,45.0,29.66,NE,45,0.0,0.0,99,0.00,,,0.00,WUHU21623XXSP,2013-01-09 12:06:00,
2013-01-09 04:11:00,45.1,44.9,29.66,North,0,0.0,0.0,99,0.00,,,0.00,WUHU21623XXSP,2013-01-09 12:11:00,
2013-01-09 04:16:00,45.1,44.9,29.66,SSE,157,0.0,0.0,99,0.00,,,0.00,WUHU21623XXSP,2013-01-09 12:16:00,
2013-01-09 04:21:00,45.0,44.7,29.65,SSE,157,0.0,0.0,99,0.00,,,0.00,WUHU21623XXSP,2013-01-09 12:21:00,
2013-01-09 04:26:00,44.8,44.5,29.65,SSE,157,0.0,0.0,99,0.00,,,0.00,WUHU21623XXSP,2013-01-09 12:26:00,
2013-01-09 04:31:00,44.8,44.5,29.65,SSE,157,0.0,0.0,99,0.00,,,0.00,WUHU21623XXSP,2013-01-09 12:31:00,
2013-01-09 04:36:00,44.6,44.5,29.65,SSE,157,0.0,0.0,99,0.00,,,0.00,WUHU21623XXSP,2013-01-09 12:36:00,
2013-01-09 04:41:00,44.4,44.1,29.65,SW,225,0.0,0.0,99,0.00,,,0.00,WUHU21623XXSP,2013-01-09 12:41:00,
2013-01-09 04:46:00,44.4,44.1,29.65,WSW,247,0.0,0.0,99,0.00,,,0.00,WUHU21623XXSP,2013-01-09 12:46:00,
2013-01-09 04:51:00,44.4,44.1,29.64,WSW,247,0.0,0.0,99,0.00,,,0.00,WUHU21623XXSP,2013-01-09 12:51:00,
2013-01-09 04:56:00,44.4,44.1,29.63,WSW,247,0.0,0.0,99,0.00,,,0.00,WUHU21623XXSP,2013-01-09 12:56:00,
2013-01-09 05:01:00,44.2,44.0,29.64,WSW,247,0.0,0.0,99,0.00,,,0.00,WUHU21623XXSP,2013-01-09 13:01:00,
2013-01-09 05:06:00,44.2,44.0,29.63,WSW,247,0.0,0.0,99,0.00,,,0.00,WUHU21623XXSP,2013-01-09 13:06:00,
2013-01-09 05:11:00,44.2,44.0,29.63,WSW,247,0.0,0.0,99,0.00,,,0.00,WUHU21623XXSP,2013-01-09 13:11:00,
2013-01-09 05:16:00,44.1,43.8,29.63,WSW,247,0.0,0.0,99,0.00,,,0.00,WUHU21623XXSP,2013-01-09 13:16:00,
2013-01-09 05:21:00,44.1,43.8,29.63,WSW,247,0.0,0.0,99,0.00,,,0.00,WUHU21623XXSP,2013-01-09 13:21:00,
2013-01-09 05:26:00,43.9,43.6,29.63,WSW,247,0.0,0.0,99,0.00,,,0.00,WUHU21623XXSP,2013-01-09 13:26:00,
2013-01-09 05:31:00,43.9,43.6,29.63,SW,225,0.0,0.0,99,0.00,,,0.00,WUHU21623XXSP,2013-01-09 13:31:00,
2013-01-09 05:36:00,43.9,43.6,29.63,WSW,247,0.0,0.0,99,0.00,,,0.00,WUHU21623XXSP,2013-01-09 13:36:00,
2013-01-09 05:41:00,43.7,43.4,29.63,WSW,247,0.0,0.0,99,0.00,,,0.00,WUHU21623XXSP,2013-01-09 13:41:00,
2013-01-09 05:46:00,43.7,43.4,29.63,WSW,247,0.0,0.0,99,0.00,,,0.00,WUHU21623XXSP,2013-01-09 13:46:00,
2013-01-09 05:51:00,43.7,43.4,29.63,WSW,247,0.0,0.0,99,0.00,,,0.00,WUHU21623XXSP,2013-01-09 13:51:00,
2013-01-09 05:56:00,43.5,43.3,29.63,WSW,247,0.0,0.0,99,0.00,,,0.00,WUHU21623XXSP,2013-01-09 13:56:00,
2013-01-09 06:01:00,43.5,43.3,29.63,SW,225,0.0,0.0,99,0.00,,,0.00,WUHU21623XXSP,2013-01-09 14:01:00,
2013-01-09 06:06:00,43.3,43.3,29.63,SW,225,0.0,0.0,99,0.00,,,0.00,WUHU21623XXSP,2013-01-09 14:06:00,
2013-01-09 06:11:00,43.2,42.9,29.63,SSW,202,0.0,0.0,99,0.00,,,0.00,WUHU21623XXSP,2013-01-09 14:11:00,
2013-01-09 06:16:00,43.0,42.9,29.63,SSW,202,0.0,0.0,99,0.00,,,0.00,WUHU21623XXSP,2013-01-09 14:16:00,
2013-01-09 06:21:00,43.0,42.7,29.63,SSW,202,0.0,0.0,99,0.00,,,0.00,WUHU21623XXSP,2013-01-09 14:21:00,
2013-01-09 06:26:00,43.0,42.4,29.63,SSW,202,0.0,0.0,98,0.00,,,0.00,WUHU21623XXSP,2013-01-09 14:26:00,
2013-01-09 06:31:00,42.6,42.1,29.64,SSW,202,0.0,0.0,98,0.00,,,0.00,WUHU21623XXSP,2013-01-09 14:31:00,
2013-01-09 06:36:00,42.6,42.1,29.64,SSW,202,0.0,0.0,98,0.00,,,0.00,WUHU21623XXSP,2013-01-09 14:36:00,
2013-01-09 06:41:00,42.4,41.9,29.64,SSW,202,0.0,0.0,98,0.00,,,0.00,WUHU21623XXSP,2013-01-09 14:41:00,
2013-01-09 06:46:00,42.4,41.9,29.64,SSW,202,0.0,0.0,98,0.00,,,0.00,WUHU21623XXSP,2013-01-09 14:46:00,
2013-01-09 06:51:00,42.1,41.5,29.64,SE,135,0.0,0.0,98,0.00,,,0.00,WUHU21623XXSP,2013-01-09 14:51:00,
2013-01-09 06:56:00,42.1,41.5,29.63,SE,135,0.0,0.0,98,0.00,,,0.00,WUHU21623XXSP,2013-01-09 14:56:00,
2013-01-09 07:01:00,41.9,41.4,29.64,SE,135,0.0,0.0,98,0.00,,,0.00,WUHU21623XXSP,2013-01-09 15:01:00,
2013-01-09 07:06:00,41.7,41.2,29.65,SE,135,0.0,0.0,98,0.00,,,0.00,WUHU21623XXSP,2013-01-09 15:06:00,
2013-01-09 07:11:00,41.7,41.2,29.65,SE,135,0.0,0.0,98,0.00,,,0.00,WUHU21623XXSP,2013-01-09 15:11:00,
2013-01-09 07:16:00,41.5,41.0,29.65,SE,135,0.0,0.0,98,0.00,,,0.00,WUHU21623XXSP,2013-01-09 15:16:00,
2013-01-09 07:22:00,41.4,40.8,29.66,SE,135,0.0,0.0,98,0.00,,,0.00,WUHU21623XXSP,2013-01-09 15:22:00,
2013-01-09 07:27:00,41.4,40.8,29.65,North,0,0.0,0.0,98,0.00,,,0.00,WUHU21623XXSP,2013-01-09 15:27:00,
2013-01-09 07:32:00,41.2,40.6,29.65,NE,45,0.0,0.0,98,0.00,,,0.00,WUHU21623XXSP,2013-01-09 15:32:00,
2013-01-09 07:37:00,41.0,40.5,29.65,NE,45,0.0,0.0,98,0.00,,,0.00,WUHU21623XXSP,2013-01-09 15:37:00,
2013-01-09 07:42:00,40.8,40.3,29.66,NE,45,0.0,0.0,98,0.00,,,0.00,WUHU21623XXSP,2013-01-09 15:42:00,
2013-01-09 07:47:00,40.8,40.3,29.66,NE,45,0.0,0.0,98,0.00,,,0.00,WUHU21623XXSP,2013-01-09 15:47:00,
2013-01-09 07:52:00,40.8,40.3,29.66,NE,45,0.0,0.0,98,0.00,,,0.00,WUHU21623XXSP,2013-01-09 15:52:00,
2013-01-09 07:57:00,40.6,40.1,29.66,NE,45,0.0,0.0,98,0.00,,,0.00,WUHU21623XXSP,2013-01-09 15:57:00,
2013-01-09 08:02:00,40.5,39.9,29.67,NE,45,0.0,0.0,98,0.00,,,0.00,WUHU21623XXSP,2013-01-09 16:02:00,
2013-01-09 08:07:00,40.5,39.9,29.67,NE,45,0.0,0.0,98,0.00,,,0.00,WUHU21623XXSP,2013-01-09 16:07:00,
2013-01-09 08:12:00,40.3,39.7,29.67,NE,45,0.0,0.0,98,0.00,,,0.00,WUHU21623XXSP,2013-01-09 16:12:00,
2013-01-09 08:17:00,40.1,39.6,29.68,ENE,67,0.0,0.0,98,0.00,,,0.00,WUHU21623XXSP,2013-01-09 16:17:00,
2013-01-09 08:22:00,39.9,39.4,29.68,ENE,67,0.0,0.0,98,0.00,,,0.00,WUHU21623XXSP,2013-01-09 16:22:00,
2013-01-09 08:27:00,39.9,39.4,29.68,ENE,67,0.0,0.0,98,0.00,,,0.00,WUHU21623XXSP,2013-01-09 16:27:00,
2013-01-09 08:32:00,39.7,39.2,29.68,ENE,67,0.0,0.0,98,0.00,,,0.00,WUHU21623XXSP,2013-01-09 16:32:00,
2013-01-09 08:37:00,39.7,39.2,29.69,North,0,0.0,0.0,98,0.00,,,0.00,WUHU21623XXSP,2013-01-09 16:37:00,
2013-01-09 08:42:00,39.6,39.0,29.69,North,0,0.0,0.0,98,0.00,,,0.00,WUHU21623XXSP,2013-01-09 16:42:00,
2013-01-09 08:47:00,39.6,39.0,29.70,ENE,67,0.0,0.0,98,0.00,,,0.00,WUHU21623XXSP,2013-01-09 16:47:00,
2013-01-09 08:52:00,39.4,38.8,29.69,ENE,67,0.0,0.0,98,0.00,,,0.00,WUHU21623XXSP,2013-01-09 16:52:00,
2013-01-09 08:57:00,39.2,38.7,29.69,NE,45,0.0,0.0,98,0.00,,,0.00,WUHU21623XXSP,2013-01-09 16:57:00,
2013-01-09 09:02:00,39.0,38.5,29.69,ESE,112,0.0,0.0,98,0.00,,,0.00,WUHU21623XXSP,2013-01-09 17:02:00,
2013-01-09 09:07:00,39.0,38.5,29.70,ESE,112,0.0,0.0,98,0.00,,,0.00,WUHU21623XXSP,2013-01-09 17:07:00,
2013-01-09 09:12:00,39.0,38.5,29.70,ESE,112,0.0,0.0,98,0.00,,,0.00,WUHU21623XXSP,2013-01-09 17:12:00,
2013-01-09 09:17:00,38.8,38.0,29.70,ESE,112,0.0,0.0,97,0.00,,,0.00,WUHU21623XXSP,2013-01-09 17:17:00,
2013-01-09 09:22:00,38.5,37.7,29.70,ENE,67,0.0,0.0,97,0.00,,,0.00,WUHU21623XXSP,2013-01-09 17:22:00,
2013-01-09 09:27:00,38.3,37.5,29.70,ENE,67,0.0,0.0,97,0.00,,,0.00,WUHU21623XXSP,2013-01-09 17:27:00,
2013-01-09 09:32:00,37.9,37.1,29.70,ENE,67,0.0,0.0,97,0.00,,,0.00,WUHU21623XXSP,2013-01-09 17:32:00,
2013-01-09 09:37:00,37.9,37.1,29.71,ENE,67,0.0,0.0,97,0.00,,,0.00,WUHU21623XXSP,2013-01-09 17:37:00,
2013-01-09 09:42:00,37.9,37.1,29.71,ESE,112,0.0,0.0,97,0.00,,,0.00,WUHU21623XXSP,2013-01-09 17:42:00,
2013-01-09 09:47:00,37.6,36.8,29.71,ESE,112,0.0,0.0,97,0.00,,,0.00,WUHU21623XXSP,2013-01-09 17:47:00,
2013-01-09 09:52:00,37.4,36.6,29.71,East,90,0.0,0.0,97,0.00,,,0.00,WUHU21623XXSP,2013-01-09 17:52:00,
2013-01-09 09:57:00,37.2,36.6,29.70,WNW,292,0.0,0.0,97,0.00,,,0.00,WUHU21623XXSP,2013-01-09 17:57:00,
2013-01-09 10:02:00,37.0,36.2,29.71,ENE,67,0.0,0.0,97,0.00,,,0.00,WUHU21623XXSP,2013-01-09 18:02:00,
2013-01-09 10:07:00,37.0,36.2,29.71,ENE,67,0.0,0.0,97,0.00,,,0.00,WUHU21623XXSP,2013-01-09 18:07:00,
2013-01-09 10:12:00,37.0,36.2,29.72,ENE,67,0.0,0.0,97,0.00,,,0.00,WUHU21623XXSP,2013-01-09 18:12:00,
2013-01-09 10:17:00,36.9,36.0,29.71,NE,45,0.0,0.0,97,0.00,,,0.00,WUHU21623XXSP,2013-01-09 18:17:00,
2013-01-09 10:22:00,37.0,36.2,29.72,SE,135,0.0,0.0,97,0.00,,,0.00,WUHU21623XXSP,2013-01-09 18:22:00,
2013-01-09 10:27:00,36.9,36.0,29.71,SE,135,0.0,0.0,97,0.00,,,0.00,WUHU21623XXSP,2013-01-09 18:27:00,
2013-01-09 10:32:00,36.9,36.0,29.71,NE,45,0.0,0.0,97,0.00,,,0.00,WUHU21623XXSP,2013-01-09 18:32:00,
2013-01-09 10:37:00,36.7,35.9,29.72,NE,45,0.0,0.0,97,0.00,,,0.00,WUHU21623XXSP,2013-01-09 18:37:00,
2013-01-09 10:41:00,36.7,35.9,29.71,NE,45,0.0,0.0,97,0.00,,,0.00,WUHU21623XXSP,2013-01-09 18:41:00,
2013-01-09 10:44:00,36.7,35.9,29.72,NE,45,0.0,0.0,97,0.00,,,0.00,WUHU21623XXSP,2013-01-09 18:44:00,
2013-01-09 10:45:00,36.7,35.9,29.72,NE,45,0.0,0.0,97,0.00,,,0.00,WUHU21623XXSP,2013-01-09 18:45:00,
2013-01-09 10:48:00,36.5,35.7,29.72,South,180,0.0,0.0,97,0.00,,,0.00,WUHU21623XXSP,2013-01-09 18:48:00,
2013-01-09 10:53:00,36.3,35.7,29.72,South,180,0.0,0.0,97,0.00,,,0.00,WUHU21623XXSP,2013-01-09 18:53:00,
2013-01-09 10:58:00,36.3,35.5,29.72,South,180,0.0,0.0,97,0.00,,,0.00,WUHU21623XXSP,2013-01-09 18:58:00,
2013-01-09 11:03:00,36.3,35.5,29.72,South,180,0.0,0.0,97,0.00,,,0.00,WUHU21623XXSP,2013-01-09 19:03:00,
2013-01-09 11:08:00,36.1,35.3,29.73,South,180,0.0,0.0,97,0.00,,,0.00,WUHU21623XXSP,2013-01-09 19:08:00,
2013-01-09 11:13:00,36.1,35.3,29.72,South,180,0.0,0.0,97,0.00,,,0.00,WUHU21623XXSP,2013-01-09 19:13:00,
2013-01-09 11:18:00,36.1,35.3,29.73,South,180,0.0,0.0,97,0.00,,,0.00,WUHU21623XXSP,2013-01-09 19:18:00,
2013-01-09 11:23:00,36.0,35.1,29.72,South,180,0.0,0.0,97,0.00,,,0.00,WUHU21623XXSP,2013-01-09 19:23:00,
2013-01-09 11:28:00,35.8,35.0,29.72,ESE,112,0.0,0.0,97,0.00,,,0.00,WUHU21623XXSP,2013-01-09 19:28:00,
2013-01-09 11:33:00,35.8,35.0,29.72,ENE,67,0.0,0.0,97,0.00,,,0.00,WUHU21623XXSP,2013-01-09 19:33:00,
2013-01-09 11:38:00,35.8,35.0,29.72,ENE,67,0.0,0.0,97,0.00,,,0.00,WUHU21623XXSP,2013-01-09 19:38:00,
2013-01-09 11:43:00,35.8,35.0,29.72,ENE,67,0.0,0.0,97,0.00,,,0.00,WUHU21623XXSP,2013-01-09 19:43:00,
2013-01-09 11:48:00,35.8,35.0,29.73,ENE,67,0.0,0.0,97,0.00,,,0.00,WUHU21623XXSP,2013-01-09 19:48:00,
2013-01-09 11:53:00,35.8,35.0,29.73,ENE,67,0.0,0.0,97,0.00,,,0.00,WUHU21623XXSP,2013-01-09 19:53:00,
2013-01-09 11:58:00,35.6,34.8,29.73,ENE,67,0.0,0.0,97,0.00,,,0.00,WUHU21623XXSP,2013-01-09 19:58:00,
2013-01-09 12:03:00,35.4,34.6,29.73,ENE,67,0.0,0.0,97,0.00,,,0.00,WUHU21623XXSP,2013-01-09 20:03:00,
2013-01-09 12:08:00,35.4,34.6,29.73,ENE,67,0.0,0.0,97,0.00,,,0.00,WUHU21623XXSP,2013-01-09 20:08:00,
2013-01-09 12:13:00,35.2,34.4,29.72,ENE,67,0.0,0.0,97,0.00,,,0.00,WUHU21623XXSP,2013-01-09 20:13:00,
2013-01-09 12:18:00,35.2,34.4,29.73,ENE,67,0.0,0.0,97,0.00,,,0.00,WUHU21623XXSP,2013-01-09 20:18:00,
2013-01-09 12:23:00,35.1,34.3,29.72,ENE,67,0.0,0.0,97,0.00,,,0.00,WUHU21623XXSP,2013-01-09 20:23:00,
2013-01-09 12:28:00,34.9,34.1,29.72,ENE,67,0.0,0.0,97,0.00,,,0.00,WUHU21623XXSP,2013-01-09 20:28:00,
2013-01-09 12:33:00,34.9,34.1,29.72,ENE,67,0.0,0.0,97,0.00,,,0.00,WUHU21623XXSP,2013-01-09 20:33:00,
2013-01-09 12:38:00,34.9,34.1,29.72,ENE,67,0.0,0.0,97,0.00,,,0.00,WUHU21623XXSP,2013-01-09 20:38:00,
2013-01-09 12:43:00,34.9,34.1,29.73,ENE,67,0.0,0.0,97,0.00,,,0.00,WUHU21623XXSP,2013-01-09 20:43:00,
2013-01-09 12:48:00,34.9,34.1,29.73,ENE,67,0.0,0.0,97,0.00,,,0.00,WUHU21623XXSP,2013-01-09 20:48:00,
2013-01-09 12:53:00,34.9,34.1,29.73,ENE,67,0.0,0.0,97,0.00,,,0.00,WUHU21623XXSP,2013-01-09 20:53:00,
2013-01-09 12:58:00,34.9,34.1,29.73,ENE,67,0.0,0.0,97,0.00,,,0.00,WUHU21623XXSP,2013-01-09 20:58:00,
2013-01-09 13:03:00,34.9,34.1,29.73,ENE,67,0.0,0.0,97,0.00,,,0.00,WUHU21623XXSP,2013-01-09 21:03:00,
2013-01-09 13:08:00,34.9,34.1,29.73,ENE,67,0.0,0.0,97,0.00,,,0.00,WUHU21623XXSP,2013-01-09 21:08:00,
2013-01-09 13:13:00,34.9,34.1,29.73,ENE,67,0.0,0.0,97,0.00,,,0.00,WUHU21623XXSP,2013-01-09 21:13:00,
2013-01-09 13:18:00,34.9,34.1,29.73,ENE,67,0.0,0.0,97,0.00,,,0.00,WUHU21623XXSP,2013-01-09 21:18:00,
2013-01-09 13:23:00,34.7,33.9,29.74,ENE,67,0.0,0.0,97,0.00,,,0.00,WUHU21623XXSP,2013-01-09 21:23:00,
2013-01-09 13:28:00,34.7,33.9,29.74,ENE,67,0.0,0.0,97,0.00,,,0.00,WUHU21623XXSP,2013-01-09 21:28:00,
2013-01-09 13:33:00,34.7,33.9,29.74,ENE,67,0.0,0.0,97,0.00,,,0.00,WUHU21623XXSP,2013-01-09 21:33:00,
2013-01-09 13:38:00,34.5,33.7,29.74,ENE,67,0.0,0.0,97,0.00,,,0.00,WUHU21623XXSP,2013-01-09 21:38:00,
2013-01-09 13:43:00,34.5,33.7,29.74,ENE,67,0.0,0.0,97,0.00,,,0.00,WUHU21623XXSP,2013-01-09 21:43:00,
2013-01-09 13:48:00,34.5,33.7,29.74,North,0,0.0,0.0,97,0.00,,,0.00,WUHU21623XXSP,2013-01-09 21:48:00,
2013-01-09 13:53:00,34.5,33.7,29.74,North,0,0.0,0.0,97,0.00,,,0.00,WUHU21623XXSP,2013-01-09 21:53:00,
2013-01-09 13:58:00,34.3,33.5,29.75,North,0,0.0,0.0,97,0.00,,,0.00,WUHU21623XXSP,2013-01-09 21:58:00,
2013-01-09 14:03:00,34.3,33.5,29.75,North,0,0.0,0.0,97,0.00,,,0.00,WUHU21623XXSP,2013-01-09 22:03:00,
2013-01-09 14:08:00,34.3,33.5,29.75,North,0,0.0,0.0,97,0.00,,,0.00,WUHU21623XXSP,2013-01-09 22:08:00,
2013-01-09 14:13:00,34.3,33.5,29.75,North,0,0.0,0.0,97,0.00,,,0.00,WUHU21623XXSP,2013-01-09 22:13:00,
2013-01-09 14:18:00,34.3,33.5,29.76,North,0,0.0,0.0,97,0.00,,,0.00,WUHU21623XXSP,2013-01-09 22:18:00,
2013-01-09 14:23:00,34.3,33.5,29.76,North,0,0.0,0.0,97,0.00,,,0.00,WUHU21623XXSP,2013-01-09 22:23:00,
2013-01-09 14:28:00,34.3,33.5,29.76,North,0,0.0,0.0,97,0.00,,,0.00,WUHU21623XXSP,2013-01-09 22:28:00,
2013-01-09 14:33:00,34.3,33.5,29.76,North,0,0.0,0.0,97,0.00,,,0.00,WUHU21623XXSP,2013-01-09 22:33:00,
2013-01-09 14:38:00,34.2,33.5,29.77,North,0,0.0,0.0,97,0.00,,,0.00,WUHU21623XXSP,2013-01-09 22:38:00,
2013-01-09 14:43:00,34.2,33.4,29.77,North,0,0.0,0.0,97,0.00,,,0.00,WUHU21623XXSP,2013-01-09 22:43:00,
2013-01-09 14:48:00,34.0,33.2,29.77,North,0,0.0,0.0,97,0.00,,,0.00,WUHU21623XXSP,2013-01-09 22:48:00,
2013-01-09 14:53:00,34.0,33.2,29.77,NNW,337,0.0,0.0,97,0.00,,,0.00,WUHU21623XXSP,2013-01-09 22:53:00,
2013-01-09 14:58:00,33.8,33.2,29.77,NNW,337,0.0,0.0,97,0.00,,,0.00,WUHU21623XXSP,2013-01-09 22:58:00,
2013-01-09 15:03:00,33.8,33.0,29.77,NNW,337,0.0,0.0,97,0.00,,,0.00,WUHU21623XXSP,2013-01-09 23:03:00,
2013-01-09 15:08:00,33.6,32.8,29.77,East,90,0.0,0.0,97,0.00,,,0.00,WUHU21623XXSP,2013-01-09 23:08:00,
2013-01-09 15:13:00,33.6,32.8,29.78,ENE,67,0.0,0.0,97,0.00,,,0.00,WUHU21623XXSP,2013-01-09 23:13:00,
2013-01-09 15:18:00,33.6,32.8,29.78,ENE,67,0.0,0.0,97,0.00,,,0.00,WUHU21623XXSP,2013-01-09 23:18:00,
2013-01-09 15:23:00,33.6,32.8,29.78,ENE,67,0.0,0.0,97,0.00,,,0.00,WUHU21623XXSP,2013-01-09 23:23:00,
2013-01-09 15:28:00,33.6,32.8,29.78,ENE,67,0.0,0.0,97,0.00,,,0.00,WUHU21623XXSP,2013-01-09 23:28:00,
2013-01-09 15:33:00,33.6,32.8,29.78,ENE,67,0.0,0.0,97,0.00,,,0.00,WUHU21623XXSP,2013-01-09 23:33:00,
2013-01-09 15:38:00,33.4,32.6,29.78,ESE,112,0.0,0.0,97,0.00,,,0.00,WUHU21623XXSP,2013-01-09 23:38:00,
2013-01-09 15:43:00,33.4,32.6,29.78,ESE,112,0.0,0.0,97,0.00,,,0.00,WUHU21623XXSP,2013-01-09 23:43:00,
2013-01-09 15:48:00,33.6,32.8,29.79,ESE,112,0.0,0.0,97,0.00,,,0.00,WUHU21623XXSP,2013-01-09 23:48:00,
2013-01-09 15:53:00,33.6,32.8,29.79,ESE,112,0.0,0.0,97,0.00,,,0.00,WUHU21623XXSP,2013-01-09 23:53:00,
2013-01-09 15:58:00,33.6,32.8,29.78,ESE,112,0.0,0.0,97,0.00,,,0.00,WUHU21623XXSP,2013-01-09 23:58:00,
2013-01-09 16:03:00,33.6,32.8,29.79,ESE,112,0.0,0.0,97,0.00,,,0.00,WUHU21623XXSP,2013-01-10 00:03:00,
2013-01-09 16:08:00,33.6,32.8,29.79,ESE,112,0.0,0.0,97,0.00,,,0.00,WUHU21623XXSP,2013-01-10 00:08:00,
2013-01-09 16:13:00,33.6,32.8,29.79,ESE,112,0.0,0.0,98,0.00,,,0.00,WUHU21623XXSP,2013-01-10 00:13:00,
2013-01-09 16:18:00,33.6,33.1,29.79,ESE,112,0.0,0.0,98,0.00,,,0.00,WUHU21623XXSP,2013-01-10 00:18:00,
2013-01-09 16:23:00,33.8,33.3,29.79,ESE,112,0.0,0.0,98,0.00,,,0.00,WUHU21623XXSP,2013-01-10 00:23:00,
2013-01-09 16:28:00,33.8,33.3,29.79,ESE,112,0.0,0.0,98,0.00,,,0.00,WUHU21623XXSP,2013-01-10 00:28:00,
2013-01-09 16:33:00,33.8,33.3,29.80,ESE,112,0.0,0.0,98,0.00,,,0.00,WUHU21623XXSP,2013-01-10 00:33:00,
2013-01-09 16:38:00,33.8,33.3,29.80,ESE,112,0.0,0.0,98,0.00,,,0.00,WUHU21623XXSP,2013-01-10 00:38:00,
2013-01-09 16:43:00,33.6,33.1,29.80,ESE,112,0.0,0.0,98,0.00,,,0.00,WUHU21623XXSP,2013-01-10 00:43:00,
2013-01-09 16:48:00,33.6,33.1,29.80,ESE,112,0.0,0.0,98,0.00,,,0.00,WUHU21623XXSP,2013-01-10 00:48:00,
2013-01-09 16:53:00,33.6,33.1,29.81,ESE,112,0.0,0.0,98,0.00,,,0.00,WUHU21623XXSP,2013-01-10 00:53:00,
2013-01-09 16:58:00,33.6,33.1,29.81,ESE,112,0.0,0.0,98,0.00,,,0.00,WUHU21623XXSP,2013-01-10 00:58:00,
2013-01-09 17:03:00,33.6,33.1,29.81,ESE,112,0.0,0.0,98,0.00,,,0.00,WUHU21623XXSP,2013-01-10 01:03:00,
2013-01-09 17:08:00,33.6,33.1,29.81,ESE,112,0.0,0.0,98,0.00,,,0.00,WUHU21623XXSP,2013-01-10 01:08:00,
2013-01-09 17:13:00,33.6,33.1,29.81,ESE,112,0.0,0.0,98,0.00,,,0.00,WUHU21623XXSP,2013-01-10 01:13:00,
2013-01-09 17:18:00,33.6,33.1,29.81,ESE,112,0.0,0.0,98,0.00,,,0.00,WUHU21623XXSP,2013-01-10 01:18:00,
2013-01-09 17:23:00,33.6,33.1,29.81,ESE,112,0.0,0.0,98,0.00,,,0.00,WUHU21623XXSP,2013-01-10 01:23:00,
2013-01-09 17:28:00,33.6,33.1,29.81,SE,135,0.0,0.0,98,0.00,,,0.00,WUHU21623XXSP,2013-01-10 01:28:00,
2013-01-09 17:33:00,33.6,33.1,29.81,SE,135,0.0,0.0,98,0.00,,,0.00,WUHU21623XXSP,2013-01-10 01:33:00,
2013-01-09 17:38:00,33.6,33.1,29.81,SE,135,0.0,0.0,98,0.00,,,0.00,WUHU21623XXSP,2013-01-10 01:38:00,
2013-01-09 17:43:00,33.4,32.9,29.81,SE,135,0.0,0.0,98,0.00,,,0.00,WUHU21623XXSP,2013-01-10 01:43:00,
2013-01-09 17:48:00,33.6,33.1,29.81,SSE,157,0.0,0.0,98,0.00,,,0.00,WUHU21623XXSP,2013-01-10 01:48:00,
2013-01-09 17:53:00,33.6,33.1,29.82,SSE,157,0.0,0.0,98,0.00,,,0.00,WUHU21623XXSP,2013-01-10 01:53:00,
2013-01-09 17:58:00,33.6,33.1,29.82,SSE,157,0.0,0.0,98,0.00,,,0.00,WUHU21623XXSP,2013-01-10 01:58:00,
2013-01-09 18:03:00,33.6,33.1,29.82,SSE,157,0.0,0.0,98,0.00,,,0.00,WUHU21623XXSP,2013-01-10 02:03:00,
2013-01-09 18:08:00,33.6,33.1,29.82,SSE,157,0.0,0.0,98,0.00,,,0.00,WUHU21623XXSP,2013-01-10 02:08:00,
2013-01-09 18:13:00,33.8,33.1,29.83,West,270,0.0,0.0,98,0.00,,,0.00,WUHU21623XXSP,2013-01-10 02:13:00,
2013-01-09 18:18:00,33.6,33.1,29.83,NW,315,0.0,0.0,98,0.00,,,0.00,WUHU21623XXSP,2013-01-10 02:18:00,
2013-01-09 18:23:00,33.6,33.1,29.83,North,0,0.0,0.0,98,0.00,,,0.00,WUHU21623XXSP,2013-01-10 02:23:00,
2013-01-09 18:28:00,33.6,33.1,29.84,West,270,0.0,0.0,98,0.00,,,0.00,WUHU21623XXSP,2013-01-10 02:28:00,
2013-01-09 18:33:00,33.6,33.1,29.84,West,270,0.0,0.0,98,0.00,,,0.00,WUHU21623XXSP,2013-01-10 02:33:00,
2013-01-09 18:38:00,33.6,33.1,29.84,West,270,0.0,0.0,98,0.00,,,0.00,WUHU21623XXSP,2013-01-10 02:38:00,
2013-01-09 18:43:00,33.6,33.1,29.84,SSW,202,0.0,0.0,98,0.00,,,0.00,WUHU21623XXSP,2013-01-10 02:43:00,
2013-01-09 18:48:00,33.6,33.1,29.84,SSW,202,0.0,0.0,98,0.00,,,0.00,WUHU21623XXSP,2013-01-10 02:48:00,
2013-01-09 18:53:00,33.6,33.1,29.85,SSW,202,0.0,0.0,98,0.00,,,0.00,WUHU21623XXSP,2013-01-10 02:53:00,
2013-01-09 18:58:00,33.6,33.1,29.85,SSW,202,0.0,0.0,98,0.00,,,0.00,WUHU21623XXSP,2013-01-10 02:58:00,
2013-01-09 19:03:00,33.6,33.1,29.85,SSW,202,0.0,0.0,98,0.00,,,0.00,WUHU21623XXSP,2013-01-10 03:03:00,
2013-01-09 19:08:00,33.6,33.1,29.84,ESE,112,0.0,0.0,98,0.00,,,0.00,WUHU21623XXSP,2013-01-10 03:08:00,
2013-01-09 19:13:00,33.4,32.9,29.84,SE,135,0.0,0.0,98,0.00,,,0.00,WUHU21623XXSP,2013-01-10 03:13:00,
2013-01-09 19:18:00,33.4,32.9,29.84,SE,135,0.0,0.0,98,0.00,,,0.00,WUHU21623XXSP,2013-01-10 03:18:00,
2013-01-09 19:23:00,33.4,32.9,29.85,SE,135,0.0,0.0,98,0.00,,,0.00,WUHU21623XXSP,2013-01-10 03:23:00,
2013-01-09 19:28:00,33.4,32.9,29.85,South,180,0.0,0.0,98,0.00,,,0.00,WUHU21623XXSP,2013-01-10 03:28:00,
2013-01-09 19:33:00,33.4,32.9,29.85,South,180,0.0,0.0,98,0.00,,,0.00,WUHU21623XXSP,2013-01-10 03:33:00,
2013-01-09 19:38:00,33.4,32.9,29.85,South,180,0.0,0.0,98,0.00,,,0.00,WUHU21623XXSP,2013-01-10 03:38:00,
2013-01-09 19:44:00,33.4,32.9,29.85,South,180,0.0,0.0,98,0.00,,,0.00,WUHU21623XXSP,2013-01-10 03:44:00,
2013-01-09 19:49:00,33.6,33.1,29.85,South,180,0.0,0.0,98,0.00,,,0.00,WUHU21623XXSP,2013-01-10 03:49:00,
2013-01-09 19:54:00,33.6,33.1,29.84,SE,135,0.0,0.0,98,0.00,,,0.00,WUHU21623XXSP,2013-01-10 03:54:00,
2013-01-09 19:59:00,33.6,33.1,29.85,West,270,0.0,0.0,98,0.00,,,0.00,WUHU21623XXSP,2013-01-10 03:59:00,
2013-01-09 20:04:00,33.6,33.1,29.86,West,270,0.0,0.0,98,0.00,,,0.00,WUHU21623XXSP,2013-01-10 04:04:00,
2013-01-09 20:09:00,33.6,33.1,29.86,WSW,247,0.0,0.0,98,0.00,,,0.00,WUHU21623XXSP,2013-01-10 04:09:00,
2013-01-09 20:14:00,33.6,33.1,29.86,East,90,0.0,0.0,98,0.00,,,0.00,WUHU21623XXSP,2013-01-10 04:14:00,
2013-01-09 20:19:00,33.6,33.1,29.86,East,90,0.0,0.0,98,0.00,,,0.00,WUHU21623XXSP,2013-01-10 04:19:00,
2013-01-09 20:24:00,33.6,33.1,29.86,East,90,0.0,0.0,98,0.00,,,0.00,WUHU21623XXSP,2013-01-10 04:24:00,
2013-01-09 20:29:00,33.8,33.3,29.86,ESE,112,0.0,0.0,98,0.00,,,0.00,WUHU21623XXSP,2013-01-10 04:29:00,
2013-01-09 20:34:00,33.8,33.3,29.86,ESE,112,0.0,0.0,98,0.00,,,0.00,WUHU21623XXSP,2013-01-10 04:34:00,
2013-01-09 20:39:00,33.8,33.3,29.86,ESE,112,0.0,0.0,98,0.00,,,0.00,WUHU21623XXSP,2013-01-10 04:39:00,
2013-01-09 20:44:00,33.8,33.3,29.86,NE,45,0.0,0.0,98,0.00,,,0.00,WUHU21623XXSP,2013-01-10 04:44:00,
2013-01-09 20:49:00,33.8,33.3,29.86,NE,45,0.0,0.0,98,0.00,,,0.00,WUHU21623XXSP,2013-01-10 04:49:00,
2013-01-09 20:54:00,33.8,33.3,29.86,ENE,67,0.0,0.0,98,0.00,,,0.00,WUHU21623XXSP,2013-01-10 04:54:00,
2013-01-09 20:59:00,33.6,33.1,29.86,ESE,112,0.0,0.0,98,0.00,,,0.00,WUHU21623XXSP,2013-01-10 04:59:00,
2013-01-09 21:00:00,33.6,33.1,29.86,ESE,112,0.0,0.0,98,0.00,,,0.00,WUHU21623XXSP,2013-01-10 05:00:00,
2013-01-09 21:01:00,33.6,33.1,29.86,SSW,202,0.0,0.0,98,0.00,,,0.00,WUHU21623XXSP,2013-01-10 05:01:00,
2013-01-09 21:06:00,33.8,33.3,29.87,SSW,202,0.0,0.0,98,0.00,,,0.00,WUHU21623XXSP,2013-01-10 05:06:00,
2013-01-09 21:11:00,33.8,33.3,29.87,SSW,202,0.0,0.0,98,0.00,,,0.00,WUHU21623XXSP,2013-01-10 05:11:00,
2013-01-09 21:16:00,33.8,33.3,29.87,NNE,22,0.0,0.0,98,0.00,,,0.00,WUHU21623XXSP,2013-01-10 05:16:00,
2013-01-09 21:21:00,33.8,33.3,29.87,NNE,22,0.0,0.0,98,0.00,,,0.00,WUHU21623XXSP,2013-01-10 05:21:00,
2013-01-09 21:26:00,33.8,33.3,29.87,NNE,22,0.0,0.0,98,0.00,,,0.00,WUHU21623XXSP,2013-01-10 05:26:00,
2013-01-09 21:31:00,33.8,33.3,29.87,NNE,22,0.0,0.0,98,0.00,,,0.00,WUHU21623XXSP,2013-01-10 05:31:00,
2013-01-09 21:36:00,33.8,33.3,29.87,NNE,22,0.0,0.0,98,0.00,,,0.00,WUHU21623XXSP,2013-01-10 05:36:00,
2013-01-09 21:41:00,33.8,33.3,29.87,NNE,22,0.0,0.0,98,0.00,,,0.00,WUHU21623XXSP,2013-01-10 05:41:00,
2013-01-09 21:46:00,33.6,33.1,29.87,NNE,22,0.0,0.0,98,0.00,,,0.00,WUHU21623XXSP,2013-01-10 05:46:00,
2013-01-09 21:51:00,33.6,33.1,29.88,NNE,22,0.0,0.0,98,0.00,,,0.00,WUHU21623XXSP,2013-01-10 05:51:00,
2013-01-09 21:56:00,33.6,33.1,29.88,NNE,22,0.0,0.0,98,0.00,,,0.00,WUHU21623XXSP,2013-01-10 05:56:00,
2013-01-09 22:01:00,33.4,32.9,29.88,NNE,22,0.0,0.0,98,0.00,,,0.00,WUHU21623XXSP,2013-01-10 06:01:00,
2013-01-09 22:06:00,33.4,32.9,29.88,NNE,22,0.0,0.0,98,0.00,,,0.00,WUHU21623XXSP,2013-01-10 06:06:00,
2013-01-09 22:11:00,33.3,32.7,29.88,NNE,22,0.0,0.0,98,0.00,,,0.00,WUHU21623XXSP,2013-01-10 06:11:00,
2013-01-09 22:16:00,33.1,32.5,29.89,NNE,22,0.0,0.0,98,0.00,,,0.00,WUHU21623XXSP,2013-01-10 06:16:00,
2013-01-09 22:21:00,33.1,32.5,29.89,NNE,22,0.0,0.0,98,0.00,,,0.00,WUHU21623XXSP,2013-01-10 06:21:00,
2013-01-09 22:26:00,33.1,32.5,29.89,NNE,22,0.0,0.0,98,0.00,,,0.00,WUHU21623XXSP,2013-01-10 06:26:00,
2013-01-09 22:31:00,33.1,32.5,29.89,NNE,22,0.0,0.0,98,0.00,,,0.00,WUHU21623XXSP,2013-01-10 06:31:00,
2013-01-09 22:36:00,33.1,32.5,29.89,NNE,22,0.0,0.0,98,0.00,,,0.00,WUHU21623XXSP,2013-01-10 06:36:00,
2013-01-09 22:41:00,33.1,32.5,29.89,NNE,22,0.0,0.0,98,0.00,,,0.00,WUHU21623XXSP,2013-01-10 06:41:00,
2013-01-09 22:46:00,33.1,32.5,29.89,NNE,22,0.0,0.0,98,0.00,,,0.00,WUHU21623XXSP,2013-01-10 06:46:00,
2013-01-09 22:51:00,33.1,32.5,29.89,NNE,22,0.0,0.0,98,0.00,,,0.00,WUHU21623XXSP,2013-01-10 06:51:00,
2013-01-09 22:56:00,33.3,32.7,29.89,NNE,22,0.0,0.0,98,0.00,,,0.00,WUHU21623XXSP,2013-01-10 06:56:00,
2013-01-09 23:01:00,33.1,32.5,29.89,NNE,22,0.0,0.0,98,0.00,,,0.00,WUHU21623XXSP,2013-01-10 07:01:00,
2013-01-09 23:06:00,33.1,32.5,29.89,NNE,22,0.0,0.0,98,0.00,,,0.00,WUHU21623XXSP,2013-01-10 07:06:00,
2013-01-09 23:11:00,33.1,32.5,29.89,NNE,22,0.0,0.0,98,0.00,,,0.00,WUHU21623XXSP,2013-01-10 07:11:00,
2013-01-09 23:16:00,33.1,32.5,29.89,NNE,22,0.0,0.0,98,0.00,,,0.00,WUHU21623XXSP,2013-01-10 07:16:00,
2013-01-09 23:21:00,33.1,32.5,29.89,NNE,22,0.0,0.0,98,0.00,,,0.00,WUHU21623XXSP,2013-01-10 07:21:00,
2013-01-09 23:26:00,33.1,32.5,29.89,NNE,22,0.0,0.0,98,0.00,,,0.00,WUHU21623XXSP,2013-01-10 07:26:00,
2013-01-09 23:31:00,33.1,32.5,29.89,NNE,22,0.0,0.0,98,0.00,,,0.00,WUHU21623XXSP,2013-01-10 07:31:00,
2013-01-09 23:36:00,33.1,32.5,29.89,NNE,22,0.0,0.0,98,0.00,,,0.00,WUHU21623XXSP,2013-01-10 07:36:00,
2013-01-09 23:41:00,33.1,32.5,29.89,NNE,22,0.0,0.0,98,0.00,,,0.00,WUHU21623XXSP,2013-01-10 07:41:00,
2013-01-09 23:46:00,33.1,32.5,29.89,NNE,22,0.0,0.0,98,0.00,,,0.00,WUHU21623XXSP,2013-01-10 07:46:00,
2013-01-09 23:51:00,33.1,32.5,29.89,NNE,22,0.0,0.0,98,0.00,,,0.00,WUHU21623XXSP,2013-01-10 07:51:00,
2013-01-09 23:56:00,33.1,32.5,29.89,NNE,22,0.0,0.0,98,0.00,,,0.00,WUHU21623XXSP,2013-01-10 07:56:00,